EHI
0 0 0 0 0 0 0 0 0 0 0 0 0 0 0 0 0 0 0 0 0 0 0 0 0 0 0 0 0 0 0 0 0 0 0 0 0 0 0 0 0 0 0
0 0 0 0 0 0 0 0 0 0 0 0 0 0 0 0 0 0 0 0 0 0 0 0 0 0 0 0 0 0 0 0 0 0 0 0 0 0 0 0 0 0 0
0 0 0 0 0 0 0 0 0 0 0 0 0 0 0 0 0 0 0 0 0 0 0 0 0 0 0 0 0 0 0 0 0 0 0 0 0 0 0 0 0 0 0
0 0 0 0 0 0 0 0 0 0 0 0 0 0 0 0 0 0 0 0 0 0 0 0 0 0 0 0 0 0 0 0 0 0 0 0 0 0 0 0 0 0 0
0 0 0 0 0 0 0 0 0 0 0 0 0 0 0 0 0 0 0 0 0 0 0 0 0 0 0 0 0 0 0 0 0 0 0 0 0 0 0 0 0 0 0
0 0 0 0 0 0 0 0 0 0 0 0 0 0 0 0 0 0 0 0 0 0 0 0 0 0 0 0 0 0 0 0 0 0 0 0 0 0 0 0 0 0 0
0 0 0 0 0 0 0 0 0 0 0 0 0 0 0 0 0 0 0 0 0 0 0 0 0 0 0 0 0 0 0 0 0 0 0 0 0 0 0 0 0 0 0
0 0 0 0 0 0 0 0 0 0 0 0 0 0 0 0 0 0 0 0 0 0 0 0 0 0 0 0 0 0 0 0 0 0 0 0 0 0 0 0 0 0 0
0 0 0 0 0 0 0 0 0 0 0 0 0 0 0 0 0 0 0 0 0 0 0 0 0 0 0 0 0 0 0 0 0 0 0 0 0 0 0 0 0 0 0
0 0 0 0 0 0 0 0 0 0 0 0 0 0 0 0 0 0 0 0 0 0 0 0 0 0 0 0 0 0 0 0 0 0 0 0 0 0 0 0 0 0 0
0 0 0 0 0 0 0 0 0 0 0 0 0 0 0 0 0 0 0 0 0 0 0 0 0 0 0 0 0 0 0 0 0 0 0 0 0 0 0 0 0 0 0
0 0 0 0 0 0 0 0 0 0 0 0 0 0 0 0 0 0 0 0 0 0 0 0 0 0 0 0 0 0 0 0 0 0 0 0 0 0 0 0 0 0 0
0 0 0 0 0 0 0 0 0 0 0 0 0 0 0 0 0 0 0 0 0 0 0 0 0 0 0 0 0 0 0 0 0 0 0 0 0 0 0 0 0 0 0
0 0 0 0 0 0 0 0 0 0 0 0 0 0 0 0 0 0 0 0 0 0 0 0 0 0 0 0 0 0 0 0 0 0 0 0 0 0 0 0 0 0 0
0 0 0 0 0 0 0 0 0 0 0 0 0 0 0 0 0 0 0 0 0 0 0 0 0 0 0 0 0 0 0 0 0 0 0 0 0 0 0 0 0 0 0
0 0 0 0 0 0 0 0 0 0 0 0 0 0 0 0 0 0 0 0 0 0 0 0 0 0 0 0 0 0 0 0 0 0 0 0 0 0 0 0 0 0 0
0 0 0 0 0 0 0 0 0 0 0 0 0 0 0 0 0 0 0 0 0 0 0 0 0 0 0 0 0 0 0 0 0 0 0 0 0 0 0 0 0 0 0
0 0 0 0 0 0 0 0 0 0 0 0 0 0 0 0 0 0 0 0 0 0 0 0 0 0 0 0 0 0 0 0 0 0 0 0 0 0 0 0 0 0 0
0 0 0 0 0 0 0 0 0 0 0 0 0 0 0 0 0 0 0 0 0 0 0 0 0 0 0 0 0 0 0 0 0 0 0 0 0 0 0 0 0 0 0
0 0 0 0 0 0 0 0 0 0 0 0 0 0 0 0 0 0 0 0 0 0 0 0 0 0 0 0 0 0 0 0 0 0 0 0 0 0 0 0 0 0 0
0 0 0 0 0 0 0 0 0 0 0 0 0 0 0 0 0 0 0 0 0 0 0 0 0 0 0 0 0 0 0 0 0 0 0 0 0 0 0 0 0 0 0
0 0 0 0 0 0 0 0 0 0 0 0 0 0 0 0 0 0 0 0 0 0 0 0 0 0 0 0 0 0 0 0 0 0 0 0 0 0 0 0 0 0 0
0 0 0 0 0 0 0 0 0 0 0 0 0 0 0 0 0 0 0 0 0 0 0 0 0 0 0 0 0 0 0 0 0 0 0 0 0 0 0 0 0 0 0
0 0 0 0 0 0 0 0 0 0 0 0 0 0 0 0 0 0 0 0 0 0 0 0 0 0 0 0 0 0 0 0 0 0 0 0 0 0 0 0 0 0 0
0 0 0 0 0 0 0 0 0 0 0 0 0 0 0 0 0 0 0 0 0 0 0 0 0 0 0 0 0 0 0 0 0 0 0 0 0 0 0 0 0 0 0
0 0 0 0 0 0 0 0 0 0 0 0 0 0 0 0 0 0 0 0 0 0 0 0 0 0 0 0 0 0 0 0 0 0 0 0 0 0 0 0 0 0 0
Wind_Speed
5 4 4 5 6 6 7 8 11 10 11 9 8 8 6 6 7 7 8 9 8 8 7 5 6 5 5 5 5 4 4 4 4 4 5 5 4 3 3 5 5 6 7
6 6 5 4 5 7 8 9 10 9 8 8 7 6 6 6 6 5 8 8 8 7 7 6 5 5 4 6 6 5 3 3 4 3 3 5 6 5 7 5 4 5 6
14 10 7 6 7 8 9 10 10 10 11 11 11 10 7 5 4 5 5 6 7 7 6 6 5 5 4 4 4 4 4 3 3 2 2 3 4 6 4 3 3 5 6
12 11 9 8 8 8 9 10 11 11 10 10 11 12 8 6 4 4 4 6 7 7 6 6 5 4 3 4 3 3 2 2 2 2 1 2 3 4 6 5 4 6 6
16 15 12 10 9 9 10 10 11 10 9 9 10 10 9 6 5 5 7 6 5 6 6 5 4 4 3 3 3 3 3 2 2 2 2 2 3 4 5 9 7 6 5
14 12 9 10 9 9 10 10 12 10 9 10 9 11 11 10 9 7 5 4 3 4 5 4 4 3 3 3 3 3 4 3 3 3 3 2 3 4 4 9 12 9 6
18 17 15 13 12 12 11 11 13 11 10 11 9 9 10 9 9 7 6 4 2 2 3 3 3 3 3 3 3 3 4 4 4 4 3 3 3 4 5 9 13 14 8
18 18 16 15 14 13 12 12 13 12 11 11 10 8 8 7 6 6 5 4 2 1 1 2 3 3 4 4 4 3 4 4 4 6 5 3 4 4 5 7 12 16 11
18 17 14 13 13 13 12 13 14 12 10 11 10 9 8 8 7 6 5 3 2 1 2 2 3 4 4 4 4 3 5 5 4 5 4 3 4 4 5 6 6 10 18
16 15 14 13 10 11 11 10 12 12 11 10 9 8 7 7 6 6 5 4 2 2 2 3 4 4 5 5 5 5 6 6 5 4 5 5 5 5 5 5 6 7 12
18 16 13 12 12 11 11 11 11 11 10 9 9 9 7 6 6 5 4 3 2 2 3 4 4 5 5 5 5 6 7 6 6 5 6 6 7 6 6 6 7 7 8
15 14 14 13 13 12 11 11 10 10 9 9 9 8 7 6 5 4 3 3 2 3 3 4 5 5 6 6 6 7 7 7 7 7 7 7 7 8 7 7 8 9 9
15 13 13 13 13 12 11 10 10 10 9 9 9 7 6 6 5 4 3 3 3 3 4 4 5 6 7 7 7 6 7 7 8 7 7 8 8 9 9 10 10 9 10
16 14 13 12 12 11 11 11 9 9 10 9 8 7 6 5 4 3 2 3 3 4 5 5 6 6 7 7 7 7 8 8 7 7 7 8 8 10 11 11 10 10 11
16 16 15 12 12 11 11 11 10 9 9 9 7 6 5 4 3 3 2 3 4 5 5 5 6 6 7 7 10 8 8 8 8 7 7 8 14 20 17 15 13 13 12
17 16 15 14 14 14 13 12 10 9 9 8 6 5 5 4 3 2 3 4 4 5 5 6 6 7 8 17 20 16 8 7 8 8 8 10 12 17 24 27 27 24 19
17 17 16 16 14 14 14 13 10 9 8 7 6 5 4 3 2 2 3 4 4 5 6 6 6 7 10 19 21 21 12 7 8 9 9 11 13 19 12 19 25 22 27
14 14 13 12 12 12 13 12 10 9 8 7 6 5 4 3 2 3 3 4 4 4 5 6 7 7 10 19 20 22 10 8 8 9 10 11 11 13 19 17 16 14 13
11 11 12 13 14 14 14 13 10 8 8 6 5 4 3 2 2 3 4 4 4 5 5 6 7 7 9 17 20 21 8 8 9 9 9 12 12 23 29 20 17 14 12
12 13 14 15 14 13 13 13 10 8 7 6 5 4 3 2 2 3 3 3 4 5 6 6 6 7 8 15 20 21 7 9 9 8 8 16 21 27 29 17 12 14 15
15 15 15 14 13 12 12 12 9 7 6 6 5 3 2 1 2 3 3 4 5 5 6 6 7 7 9 15 19 22 10 9 10 10 9 10 26 28 28 23 11 19 20
15 15 14 12 9 10 12 11 8 7 6 5 4 3 2 2 2 3 4 5 5 5 6 6 6 5 7 12 16 22 20 19 11 10 10 13 26 27 26 19 21 26 21
12 12 14 13 8 7 10 11 7 6 6 5 4 2 2 2 2 3 4 4 4 4 5 5 6 5 5 8 18 21 22 23 13 10 20 24 25 23 16 20 24 19 11
11 12 13 12 8 7 8 8 7 6 6 5 3 2 2 3 3 3 3 3 4 5 6 6 7 7 6 6 7 7 9 14 13 10 14 20 20 17 18 17 13 10 10
9 9 11 11 9 8 8 7 6 6 5 4 2 1 2 3 3 3 3 4 4 6 8 5 5 8 8 12 23 17 11 11 12 14 7 8 10 10 10 11 10 10 11
9 9 9 9 8 8 7 6 5 6 5 2 1 1 2 2 3 4 5 8 10 15 16 16 15 12 17 24 25 25 25 25 24 15 9 10 10 11 12 12 12 12 11
Wind_Direction
209 185 158 132 118 114 115 119 123 125 123 121 115 108 99 93 84 77 75 73 70 65 62 59 48 45 49 37 23 9 4 353 348 343 321 316 327 349 336 353 356 359 1
188 187 161 139 131 123 118 118 122 119 117 114 109 107 111 97 86 79 69 65 64 60 63 59 55 46 45 35 27 23 9 346 3 349 330 335 333 342 336 320 343 352 351
185 180 163 148 136 129 129 126 121 117 117 117 113 111 100 86 76 71 67 61 66 63 61 59 60 51 48 33 20 24 25 345 331 354 42 3 313 309 297 313 331 339 319
176 168 158 152 145 134 125 124 122 121 121 122 127 129 126 120 114 107 92 72 65 64 60 57 57 49 41 29 5 23 1 352 336 331 30 233 246 292 307 303 301 304 304
171 165 159 151 140 131 125 123 119 115 111 109 117 115 110 110 110 103 94 77 62 58 57 56 49 38 26 14 4 355 349 336 320 315 305 290 261 235 267 294 304 302 291
160 149 139 135 129 124 120 121 118 112 110 108 108 116 120 121 119 113 106 89 70 51 43 49 41 27 11 355 345 338 337 327 322 312 303 300 297 303 288 296 305 300 290
155 151 148 145 141 133 127 124 121 116 113 110 107 112 116 117 119 121 115 109 88 61 32 37 28 11 349 343 344 338 330 323 325 309 295 288 281 290 299 306 308 304 296
157 155 152 147 144 137 132 128 123 120 117 113 109 107 107 105 106 108 111 111 115 114 58 39 19 2 353 349 345 328 318 320 312 314 308 299 297 300 301 302 309 308 303
155 151 147 145 143 138 135 132 127 122 118 116 112 106 104 104 106 106 101 101 98 94 54 29 9 355 349 341 334 316 308 307 302 302 303 302 296 297 292 292 295 301 307
149 148 147 144 139 133 126 122 124 124 121 117 115 112 106 107 110 107 104 102 89 59 34 11 358 348 338 328 320 308 301 303 302 298 302 299 296 295 291 288 286 282 289
154 152 148 142 134 129 127 125 124 123 119 113 109 109 107 108 107 105 107 103 76 41 18 356 346 335 322 315 309 301 301 300 297 294 299 291 294 297 298 292 287 283 282
149 148 146 142 140 137 134 131 128 125 122 117 112 109 110 109 106 105 98 83 54 18 358 345 334 322 315 307 302 300 307 298 292 289 288 288 303 302 299 294 288 287 280
146 145 147 149 147 144 139 135 130 127 122 118 114 112 112 112 112 107 86 57 27 360 347 339 325 315 310 305 299 295 293 289 286 283 281 286 295 299 297 294 290 287 290
153 153 153 152 149 145 141 135 129 127 125 119 118 119 123 123 119 103 69 30 7 351 341 331 320 313 309 302 299 298 295 290 285 279 276 280 287 292 296 297 290 295 297
160 162 159 154 148 141 137 134 130 127 127 123 122 126 128 121 107 80 38 11 359 348 336 328 321 317 314 316 320 312 306 301 296 289 281 284 302 308 308 307 308 305 299
168 165 160 155 152 148 143 136 132 130 128 125 127 129 124 115 96 57 23 5 351 339 334 324 316 315 326 328 330 330 317 309 309 306 300 297 304 306 313 312 307 305 305
169 167 164 160 154 149 143 139 135 131 126 126 129 129 124 112 79 37 14 352 336 327 321 313 309 307 313 331 333 331 332 325 314 307 305 309 311 314 299 299 304 304 302
163 158 152 144 137 133 132 129 130 129 127 129 132 129 121 104 59 20 352 327 313 312 304 301 302 305 316 333 332 331 335 312 302 297 295 296 300 303 308 305 305 301 301
144 140 136 132 131 133 133 129 127 126 128 133 133 129 121 99 31 349 325 310 304 304 294 294 301 305 311 326 329 331 312 303 299 293 295 304 304 306 313 316 312 312 307
119 121 122 125 128 132 132 129 131 131 136 137 132 125 113 85 352 320 307 297 295 289 295 300 301 299 296 315 328 327 306 306 306 301 294 308 313 313 319 321 319 316 311
115 119 122 126 130 132 128 127 130 134 134 128 122 111 88 25 323 317 301 300 299 301 304 302 299 295 303 320 327 326 323 312 314 316 314 308 316 321 326 329 321 312 320
113 118 118 117 119 124 125 125 130 129 123 119 111 93 51 357 349 330 310 306 307 309 308 304 302 292 299 317 322 326 327 327 320 315 312 313 322 328 330 328 319 324 330
110 113 117 114 108 114 125 128 131 128 120 111 101 73 24 354 337 318 312 314 316 313 308 305 309 309 302 308 321 324 328 330 326 313 319 324 328 330 327 320 324 329 323
113 117 118 118 113 110 110 121 128 123 116 110 95 55 6 332 324 313 309 313 312 308 310 318 319 315 310 303 302 308 318 325 323 317 321 328 327 326 322 322 323 320 316
114 118 122 123 120 117 114 118 121 117 112 109 88 18 330 313 311 315 313 318 291 309 323 316 310 319 319 319 329 333 326 327 324 331 325 322 323 323 321 320 320 320 321
119 117 117 121 122 121 120 120 119 118 119 115 83 310 304 304 310 315 317 326 329 329 330 329 328 321 320 324 330 330 331 334 335 337 326 322 321 320 321 321 320 320 319